Weather History for LFQQ - January, 2014

Change the Weather History Date:

Thursday, January 16, 2014

  Actual Average Record
Temperature  
Mean Temperature 46 °F -  
Max Temperature 48 °F 43 °F 53 °F (2011)
Min Temperature 44 °F 34 °F 14 °F (2013)
Degree Days  
Heating Degree Days 19    
Moisture  
Dew Point 44 °F    
Average Humidity 88    
Maximum Humidity 100    
Minimum Humidity 73    
Precipitation  
Precipitation 0.31 in - - ()
Sea Level Pressure  
Sea Level Pressure 29.44 in    
Wind  
Wind Speed 13 mph ()    
Max Wind Speed 18 mph    
Max Gust Speed -    
Visibility 7.0 miles    
Events Rain    
Averages and records for this station are not official NWS values.
T = Trace of Precipitation, MM = Missing Value Source: Averaged Metar Reports

Daily Weather History Graph

Daily Weather History Graph

Search for Another Location

Airport or City:

Trip Planner

Search our weather history database for the weather conditions in past years. The results will help you decide how hot, cold, wet, or windy it might be!

Date:

Astronomy

Jan. 16, 2014 Rise Set
Actual Time 8:41 AM CET 5:13 PM CET
Civil Twilight 8:04 AM CET 5:50 PM CET
Nautical Twilight 7:23 AM CET 6:31 PM CET
Astronomical Twilight 6:44 AM CET 7:10 PM CET
Moon 6:00 PM CET (1/16) 8:17 AM CET (1/16)
Length of Visible Light 9h 46m
Length of Day
8h 31m
Full, 100% of the Moon is Illuminated
Jan 16
Full
Jan 24
Last Quarter
Jan 30
New
Feb 6
First Quarter
Feb 15
Full

Hourly Weather History & Observations

Time (CET) Temp. Windchill Dew Point Humidity Pressure Visibility Wind Dir Wind Speed Gust Speed Precip Events Conditions
12:00 AM 48 °F - 46 °F 89% 29.55 in 6 mi South 16.1 mph - -   Overcast
12:00 AM 48.2 °F - 46.4 °F 93% 29.53 in 6.2 mi South 17.3 mph - N/A   Overcast
1:00 AM 48 °F - 46 °F 89% 29.54 in 6 mi South 15.0 mph - -   Overcast
1:00 AM 48.2 °F - 46.4 °F 93% 29.53 in 6.2 mi South 16.1 mph - N/A   Overcast
1:30 AM 48.2 °F - 44.6 °F 87% 29.50 in 6.2 mi South 17.3 mph - N/A   Overcast
2:00 AM 48 °F - 46 °F 89% 29.53 in 14 mi South 18.4 mph - -   Clear
2:00 AM 48.2 °F - 46.4 °F 93% 29.50 in 6.2 mi South 18.4 mph - N/A   Overcast
2:30 AM 48.2 °F - 44.6 °F 87% 29.50 in 6.2 mi South 18.4 mph - N/A   Overcast
3:00 AM 49 °F - 46 °F 84% 29.53 in 25 mi South 17.3 mph - -   Clear
3:00 AM 48.2 °F - 46.4 °F 93% 29.50 in 6.2 mi South 17.3 mph - N/A   Overcast
3:30 AM 48.2 °F - 46.4 °F 93% 29.50 in 6.2 mi South 16.1 mph - N/A   Overcast
4:00 AM 48 °F - 46 °F 88% 29.51 in 16 mi South 17.3 mph - -   Clear
4:00 AM 48.2 °F - 46.4 °F 93% 29.50 in 6.2 mi South 17.3 mph - N/A   Overcast
5:00 AM 48 °F - 45 °F 87% 29.49 in 16 mi South 15.0 mph - -   Overcast
5:00 AM 48.2 °F - 46.4 °F 93% 29.47 in 6.2 mi South 15.0 mph - N/A   Overcast
5:30 AM 48.2 °F - 44.6 °F 87% 29.47 in 6.2 mi South 18.4 mph - N/A   Scattered Clouds
6:00 AM 48 °F - 45 °F 87% 29.47 in 16 mi South 13.8 mph - - Rain Light Rain
6:00 AM 48.2 °F - 44.6 °F 87% 29.44 in 6.2 mi South 13.8 mph - N/A Rain Light Rain
6:30 AM 48.2 °F - 46.4 °F 93% 29.44 in 6.2 mi South 12.7 mph - N/A Rain Light Rain
7:00 AM 48 °F - 46 °F 89% 29.47 in 16 mi South 12.7 mph - - Rain Light Rain
7:00 AM 48.2 °F - 46.4 °F 93% 29.44 in 6.2 mi South 11.5 mph - N/A Rain Light Rain
7:30 AM 48.2 °F - 46.4 °F 93% 29.44 in 6.2 mi South 12.7 mph - N/A Rain Light Rain
8:00 AM 48 °F - 46 °F 89% 29.47 in 9 mi South 11.5 mph - - Rain Light Rain
8:00 AM 48.2 °F - 46.4 °F 93% 29.44 in 6.2 mi South 11.5 mph - N/A Rain Light Rain
8:30 AM 48.2 °F - 46.4 °F 93% 29.44 in 6.2 mi South 11.5 mph - N/A Rain Light Rain
9:00 AM 47 °F - 46 °F 92% 29.45 in 16 mi South 12.7 mph - - Rain Light Rain
9:00 AM 48.2 °F - 46.4 °F 93% 29.44 in 6.2 mi South 12.7 mph - N/A Rain Light Rain
9:30 AM 46.4 °F 41.5 °F 46.4 °F 100% 29.44 in 4.3 mi South 10.4 mph - N/A Rain Light Rain
10:00 AM 47 °F - 46 °F 92% 29.45 in 4 mi South 10.4 mph - - Rain Light Rain
10:00 AM 46.4 °F 41.9 °F 44.6 °F 93% 29.44 in 4.3 mi South 9.2 mph - N/A Rain Light Rain
10:30 AM 46.4 °F 41.1 °F 46.4 °F 100% 29.44 in 4.3 mi South 11.5 mph - N/A Rain Light Rain
11:00 AM 47 °F - 46 °F 93% 29.45 in 4 mi South 10.4 mph - - Rain Light Rain
11:00 AM 46.4 °F 41.5 °F 46.4 °F 100% 29.44 in 3.7 mi South 10.4 mph - N/A Rain Light Rain
11:30 AM 46.4 °F 40.7 °F 46.4 °F 100% 29.44 in 5.0 mi South 12.7 mph - N/A Rain Light Rain
12:00 PM 47 °F - 45 °F 90% 29.44 in 5 mi South 12.7 mph - - Rain Light Rain
12:00 PM 46.4 °F 40.7 °F 44.6 °F 93% 29.42 in 5.0 mi South 12.7 mph - N/A Rain Light Rain
12:30 PM 46.4 °F 40.4 °F 44.6 °F 93% 29.42 in 5.0 mi SSW 13.8 mph - N/A Rain Light Rain
1:00 PM 45 °F - 41 °F 79% 29.44 in 9 mi SW 9.2 mph - - Rain Light Rain
1:00 PM 44.6 °F 39.7 °F 41.0 °F 87% 29.42 in 6.2 mi SW 9.2 mph - N/A Rain Light Rain
1:30 PM 44.6 °F 41.4 °F 42.8 °F 93% 29.42 in 6.2 mi South 5.8 mph - N/A   Mostly Cloudy
2:00 PM 45 °F - 42 °F 84% 29.43 in 25 mi South 6.9 mph - - Rain Light Rain
2:00 PM 44.6 °F 40.7 °F 41.0 °F 87% 29.42 in 6.2 mi South 6.9 mph - N/A   Mostly Cloudy
2:30 PM 46.4 °F 41.9 °F 42.8 °F 87% 29.42 in 6.2 mi South 9.2 mph - N/A   Mostly Cloudy
3:00 PM 47 °F - 42 °F 76% 29.41 in 25 mi South 11.5 mph - -   Scattered Clouds
3:00 PM 46.4 °F 41.1 °F 42.8 °F 87% 29.39 in 6.2 mi South 11.5 mph - N/A   Scattered Clouds
3:30 PM 46.4 °F 40.7 °F 41.0 °F 81% 29.39 in 6.2 mi South 12.7 mph - N/A   Mostly Cloudy
4:00 PM 47 °F - 42 °F 76% 29.41 in 25 mi South 11.5 mph - -   Partly Cloudy
4:00 PM 46.4 °F 41.1 °F 42.8 °F 87% 29.39 in 6.2 mi South 11.5 mph - N/A   Scattered Clouds
4:30 PM 46.4 °F 41.5 °F 42.8 °F 87% 29.39 in 6.2 mi South 10.4 mph - N/A   Scattered Clouds
5:00 PM 46 °F - 42 °F 83% 29.40 in 25 mi South 12.7 mph - -   Partly Cloudy
5:00 PM 46.4 °F 40.7 °F 42.8 °F 87% 29.39 in 6.2 mi South 12.7 mph - N/A   Scattered Clouds
5:30 PM 46.4 °F 41.1 °F 42.8 °F 87% 29.39 in 6.2 mi South 11.5 mph - N/A Rain Light Rain Showers
6:00 PM 47 °F - 43 °F 81% 29.39 in 25 mi SSE 12.7 mph - - Rain Light Rain Showers
6:00 PM 46.4 °F 41.1 °F 42.8 °F 87% 29.39 in 6.2 mi SSE 11.5 mph - N/A   Mostly Cloudy
6:30 PM 46.4 °F 40.4 °F 42.8 °F 87% 29.39 in 6.2 mi South 13.8 mph - N/A   Scattered Clouds
7:00 PM 46 °F - 42 °F 82% 29.39 in 31 mi South 13.8 mph - -   Partly Cloudy
7:00 PM 46.4 °F 40.4 °F 42.8 °F 87% 29.39 in 6.2 mi South 13.8 mph - N/A   Mostly Cloudy
7:30 PM 46.4 °F 40.7 °F 42.8 °F 87% 29.39 in 6.2 mi South 12.7 mph - N/A   Mostly Cloudy
8:00 PM 47 °F - 41 °F 73% 29.39 in 37 mi South 16.1 mph - -   Mostly Cloudy
8:00 PM 46.4 °F 40.1 °F 41.0 °F 81% 29.39 in 6.2 mi South 15.0 mph - N/A   Mostly Cloudy
8:30 PM 46.4 °F 40.4 °F 41.0 °F 81% 29.39 in 6.2 mi South 13.8 mph - N/A   Scattered Clouds
9:00 PM 46 °F - 41 °F 78% 29.39 in 37 mi South 16.1 mph - -   Partly Cloudy
9:00 PM 46.4 °F 39.8 °F 41.0 °F 81% 29.39 in 6.2 mi South 16.1 mph - N/A   Scattered Clouds
9:30 PM 46.4 °F 40.7 °F 41.0 °F 81% 29.39 in 6.2 mi South 12.7 mph - N/A   Scattered Clouds
10:00 PM 46 °F - 41 °F 76% 29.40 in 37 mi South 15.0 mph - -   Partly Cloudy
10:00 PM 46.4 °F 40.1 °F 41.0 °F 81% 29.39 in 6.2 mi South 15.0 mph - N/A   Scattered Clouds
10:30 PM 46.4 °F 39.5 °F 41.0 °F 81% 29.39 in 6.2 mi South 17.3 mph - N/A   Partly Cloudy
11:00 PM 45 °F - 40 °F 77% 29.40 in 37 mi South 18.4 mph - -   Scattered Clouds
11:00 PM 44.6 °F 36.9 °F 41.0 °F 87% 29.39 in 6.2 mi South 18.4 mph - N/A   Partly Cloudy